Flag for Germany Weather past 2 weeks in Zeitz, Saxony-Anhalt, Germany

Now
54 °F

Overcast.


Feels Like: 53 °F
Forecast: 48 / 62 °F
Wind: 3 mph from Southwest

Location: Gera-Leumnitz

Current Time: May 30, 2015 at 1:08:52 AM

Latest Report: May 30, 2015 at 12:00 AM


Visibility: 44 mi

Pressure: 29.80 "Hg

Humidity: 76%

Dew point: 46 °F

Location of ZeitzLocation

Historic Weather in Zeitz — Graph

°F

Zeitz temperature yesterday

Maximum temperature yesterday: 66 °F (at 2:00 PM)
Minimum temperature yesterday: 47 °F (at 4:00 AM)
Average temperature yesterday: 57 °F

Past Weeks' High & Low Weather Summary

 TemperatureHumidityPressure
High69 °F (May 18, 5:00 PM)97% (May 29, 4:00 AM)30.37 "Hg (May 29, 4:00 AM)
Low37 °F (May 22, 5:00 AM)26% (May 19, 5:00 PM)29.67 "Hg (May 18, 8:00 PM)
Average54 °F67%30.04 "Hg
* Reported Midnight between May 14 and May 15 — Midnight between May 29 and May 30, Zeitz, Weather by CustomWeather, © 2015

Note: Actual official high and low records may vary slightly from our data, if they occured in-between our weather recording intervals... More about our weather records

Advertising

Zeitz weather history for previous 24 hours

 ConditionsComfort  
Time TempWeatherWind HumidityBarometerVisibility
12:00 AM
Sat, May 30
54 °FOvercast.3 mph76%29.80 "Hg43 mi
11:00 PM
Fri, May 29
56 °FPassing clouds.6 mph70%29.79 "Hg43 mi
10:00 PM59 °FOvercast.7 mph61%29.78 "Hg43 mi
9:00 PM61 °FLight rain. Overcast.7 mph60%29.76 "Hg40 mi
8:00 PM63 °FOvercast.6 mph53%29.76 "Hg37 mi
7:00 PM63 °FOvercast.6 mph56%29.77 "Hg37 mi
6:00 PM64 °FPartly sunny.7 mph49%29.78 "Hg37 mi
5:00 PM64 °FLight rain. Overcast.6 mph50%29.79 "Hg37 mi
4:00 PM65 °FOvercast.8 mph41%29.81 "Hg28 mi
3:00 PM65 °FOvercast.8 mph40%29.82 "Hg28 mi
2:00 PM66 °FOvercast.8 mph42%29.83 "Hg25 mi
1:00 PM64 °FOvercast.7 mph47%29.85 "Hg25 mi
12:00 PM64 °FOvercast.6 mph49%29.86 "Hg25 mi
11:00 AM60 °FOvercast.5 mph61%29.90 "Hg25 mi
10:00 AM58 °FOvercast.3 mph65%29.92 "Hg16 mi
9:00 AM55 °FOvercast.2 mph76%29.94 "Hg11 mi
8:00 AM53 °FOvercast.2 mph89%29.94 "Hg9 mi
7:00 AM50 °FFog.2 mph94%29.96 "Hg4 mi
6:00 AM47 °FFog.2 mph97%29.96 "Hg4 mi
5:00 AM47 °FFog.3 mph97%29.96 "Hg2 mi
4:00 AM47 °FFog.3 mph97%29.96 "Hg2 mi
3:00 AM49 °FFog.2 mph95%29.97 "Hg3 mi
2:00 AM50 °FFog.2 mph96%29.97 "Hg2 mi
1:00 AM51 °FOvercast.1 mph88%29.97 "Hg7 mi
Weather by CustomWeather, © 2015

See weather overviewHow to use our weather pages